MST,Max TemperatureF,Mean TemperatureF,Min TemperatureF,Max Dew PointF,MeanDew PointF,Min DewpointF,Max Humidity, Mean Humidity, Min Humidity, Max Sea Level PressureIn, Mean Sea Level PressureIn, Min Sea Level PressureIn, Max VisibilityMiles, Mean VisibilityMiles, Min VisibilityMiles, Max Wind SpeedMPH, Mean Wind SpeedMPH, Max Gust SpeedMPH,PrecipitationIn, CloudCover, Events, WindDirDegrees
2012-2-1,70,57,44,31,27,22,60,37,16,30.15,30.04,29.94,10,10,10,5,0,,0.00,0,,160
2012-2-2,64,54,44,30,27,22,53,36,21,29.94,29.89,29.82,10,10,10,9,2,,0.00,2,,257
2012-2-3,64,52,39,32,29,26,70,41,24,30.05,30.00,29.94,10,10,10,9,3,,0.00,0,,309
2012-2-4,68,55,42,28,24,19,55,31,16,30.07,30.02,29.98,10,10,10,7,2,,0.00,0,,268
2012-2-5,68,55,42,28,25,24,55,33,19,30.07,30.01,29.95,10,10,10,9,1,,0.00,0,,150
2012-2-6,66,56,46,30,27,24,54,35,21,30.04,29.99,29.96,10,10,10,6,1,,0.00,0,,242
2012-2-7,72,60,48,31,23,18,52,25,14,30.02,29.96,29.89,10,10,10,10,3,17,0.00,0,,67
2012-2-8,72,64,55,33,30,25,39,29,20,30.09,30.02,29.93,10,10,10,7,3,,0.00,4,,164
2012-2-9,75,62,48,35,32,29,56,35,18,30.13,30.07,30.00,10,10,9,8,1,,0.00,0,,266
2012-2-10,75,62,48,34,29,25,52,31,16,30.14,30.06,29.99,10,10,10,7,1,,0.00,0,,200
2012-2-11,77,62,48,33,29,24,52,30,15,29.98,29.86,29.75,10,10,10,9,2,,0.00,0,,205
2012-2-12,64,58,51,34,33,28,46,38,30,29.91,29.85,29.78,10,10,10,10,3,18,0.00,1,,237
2012-2-13,64,55,46,40,34,32,59,43,31,29.98,29.89,29.81,10,10,10,8,2,,0.00,3,,171
2012-2-14,57,51,44,40,34,25,74,53,34,30.03,29.88,29.79,10,10,10,10,3,22,0.00,4,Rain,212
2012-2-15,60,50,39,36,32,28,79,53,31,30.08,29.99,29.91,10,10,10,10,2,,0.00,0,,126
2012-2-16,64,53,42,36,30,27,65,42,24,29.99,29.94,29.91,10,10,10,8,2,,0.00,1,,199
2012-2-17,66,55,44,39,34,29,73,48,25,30.09,30.03,29.95,10,10,10,9,1,,0.00,0,,227
2012-2-18,66,54,43,40,32,27,68,45,24,30.13,30.04,29.96,10,10,10,7,2,,0.00,0,,151
2012-2-19,64,54,45,33,31,29,56,40,27,29.94,29.88,29.81,10,10,10,8,2,,0.00,1,,239
2012-2-20,66,54,42,32,27,20,65,38,17,30.09,30.03,29.96,10,10,10,6,1,,0.00,0,,196
2012-2-21,72,58,43,25,20,11,47,28,10,30.12,30.07,30.02,10,10,10,5,1,,0.00,0,,263
2012-2-22,73,58,44,27,20,14,45,24,11,30.10,30.01,29.89,10,10,10,7,1,,0.00,0,,283
2012-2-23,75,60,46,31,26,22,44,27,16,29.88,29.82,29.76,10,10,10,7,1,,0.00,0,,177
2012-2-24,77,62,46,29,21,12,48,23,9,30.06,29.99,29.87,10,10,10,5,1,,0.00,0,,215
2012-2-25,75,62,48,28,23,18,46,24,11,30.05,29.96,29.86,10,10,10,7,1,,0.00,0,,188
2012-2-26,77,62,46,27,24,21,46,25,12,29.90,29.83,29.77,10,10,10,9,2,,0.00,0,,117
2012-2-27,75,65,55,37,29,22,42,28,13,29.84,29.78,29.69,10,10,10,21,7,30,0.00,0,,183
2012-2-28,59,54,48,38,28,25,68,41,28,30.18,30.10,29.88,10,10,10,16,8,31,0.00,3,Rain,266
2012-2-29,64,52,39,29,25,20,65,36,18,30.20,30.12,30.04,10,10,9,8,1,,0.00,0,,243